www.pogodaiklimat.ru
ПОГОДА в Моргантауне
Время
и дата
20:53 27.09
21:53 27.09
22:53 27.09
23:53 27.09
00:53 28.09
01:53 28.09
02:53 28.09
03:53 28.09
04:53 28.09
05:53 28.09
06:53 28.09
07:34 28.09
07:53 28.09
08:53 28.09
09:53 28.09
10:53 28.09
11:53 28.09
12:46 28.09
12:53 28.09
13:08 28.09
13:48 28.09
13:53 28.09
14:53 28.09
15:40 28.09
15:53 28.09
16:03 28.09
16:53 28.09
17:07 28.09
17:30 28.09
17:53 28.09
18:53 28.09
19:16 28.09
19:48 28.09
19:53 28.09
20:53 28.09
21:12 28.09
21:53 28.09
22:25 28.09
22:53 28.09
23:53 28.09
00:16 29.09
00:36 29.09
00:42 29.09
00:53 29.09
01:28 29.09
01:53 29.09
02:14 29.09
02:53 29.09
Ветер
(напр.,м/с)
Видим. Явления Облачность Т
(С)
Тd
(С)
f
(%)
Тe
(С)
Тes
(С)
Комфортность P
(гПа)
Po
(гПа)
Тmin
(С)
Tmax
(С)
R
(мм)
R24
(мм)
S
(см)
Ю 2 16 км 5/0 2400 m
[Ac]
+8.9 +6.7 86 +7 +7 1019.8 975.1
Ю 2 16 км 5/0 2700 m
[Ac]
+8.3 +6.7 90 +6 +6 1020.6 975.7
Ю 2 16 км ясно +7.8 +6.1 89 +6 +6 1021.1 976.4
Ю 2 16 км ясно +7.2 +5.6 90 +5 +5 1021.3 976.7
Ю 2 16 км ясно +6.7 +5.6 93 +4 +4 1021.4 976.7 +6.7 +11.7
Ю 2 16 км ясно +6.1 +5.0 93 +4 +4 1021.6 977.0
Ю 2 16 км ясно +6.1 +5.0 93 +4 +4 1021.9 977.0
Ю 2 16 км ясно +5.6 +4.4 92 +3 +3 1022.6 977.7
Ю 2 16 км ясно +6.1 +5.0 93 +4 +4 1022.9 978.0
Ю 2 16 км ясно +6.1 +5.0 93 +4 +4 1023.5 978.7
штиль 0 16 км 8/8 390 м +6.1 +5.0 93 +5 +5 1024.1 979.0 +5.6 +6.7 0.8
Ю 3 16 км 10/10 270 м +7.2 +6.1 93 +4 +4 979.3
Ю 2 16 км 10/10 240 м +7.2 +6.1 93 +5 +5 1024.6 979.3
нст 2 16 км 10/10 150 м +8.3 +6.7 90 +6 +6 1025.3 980.3
Ю 2 13 км 10/10 210 м +8.9 +7.2 89 +7 +7 1026.2 980.9
нст 2 16 км 10/10 210 м +10.0 +7.8 86 +8 +8 1026.6 981.2
ЮЗ 2 16 км 10/10 270 м +10.6 +7.8 83 +9 +9 1027.0 981.9
ЮЗ 2 16 км 10/10 300 м +11.7 +8.9 83 +11 +11 981.9
нст 2 16 км 10/10 300 м +12.2 +8.3 77 +11 +11 1026.9 981.9 +6.1 +12.2
нст 2 16 км 10/10 330 м +12.2 +8.9 80 +11 +11 981.9
нст 2 16 км 10/8 420 m
[Ac]
+13.0 +9.0 77 +12 +13 981.2
нст 2 16 км 8/8 420 m
[Ac]
+13.9 +8.9 72 +13 +16 1026.4 981.2
Ю 3 16 км 8/5 1230 m
[Ac]
+14.4 +9.4 72 +14 +16 1026.6 981.6
ЮЗ 4 16 км 10/10 810 м +14.4 +8.9 70 +13 +13 981.6
ЮЗ 4 16 км 10/10 810 м +15.0 +8.9 67 +14 +14 1026.8 981.9
СЗ 2 16 км 10/10 840 м +15.0 +7.8 62 +15 +15 981.9
СЗ 2 16 км 10/10 930 м +14.4 +7.8 65 +14 +14 1027.3 982.2
С 3 3 км дождь 10/10 840 m
[Ns]
+11.7 +8.9 83 +10 +10 982.9
штиль 0 11 км слабый дождь 10/10 1500 m
[Ns]
+11.1 +9.4 89 +10 +10 982.9
В 2 16 км слабый дождь 10/8 1800 m
[Ac Ns]
+10.6 +9.4 92 +9 +9 1028.0 982.5
штиль 0 16 км 10/10 1260 м +10.6 +9.4 92 +10 +10 1028.2 982.9 +10.0 +15.6 3.6
штиль 0 14 км 10/10 660 м +10.6 +10.0 96 +10 +10 983.2
штиль 0 16 км 10/10 660 м +11.0 +9.0 87 +10 +10 983.5
штиль 0 16 км 10/8 660 m
[Ac]
+10.6 +10.0 96 +10 +10 1028.9 983.5
штиль 0 10 км дымка 10/10 690 м +10.0 +9.4 96 +9 +9 1029.3 984.2
штиль 0 11 км 10/10 600 м +10.6 +9.4 92 +10 +10 984.2
штиль 0 13 км 10/10 480 м +10.6 +9.4 92 +10 +10 1029.7 984.5
штиль 0 16 км 10/10 420 м +10.6 +10.0 96 +10 +10 984.5
штиль 0 13 км 10/10 390 м +10.6 +10.0 96 +10 +10 1029.9 984.8
штиль 0 13 км 10/10 360 м +10.6 +10.0 96 +10 +10 1029.8 984.5
штиль 0 2 км дымка 10/10 360 м +10.6 +9.4 92 +10 +10 984.5
С 2 1 км дымка 8/8 300 м +10.0 +9.4 96 +8 +8 984.5
С 2 5 км дымка 8/8 300 м +10.6 +9.4 92 +9 +9 984.5
С 2 16 км 8/8 330 м +10.6 +9.4 92 +9 +9 1029.7 984.5 +10.0 +11.1
СЗ 2 16 км 10/10 270 м +10.6 +9.4 92 +9 +9 984.8
С 2 11 км 10/10 150 м +10.6 +9.4 92 +9 +9 1029.8 984.8
С 2 16 км 10/10 120 м +10.0 +8.9 93 +8 +8 984.8
С 2 11 км 10/10 120 м +10.0 +9.4 96 +8 +8 1029.7 984.8
Местоположение метеостанции Morgantown Municipal-Hart Field: широта 39.6499 долгота -79.9207 высота над уровнем моря 374 м.
В архиве по умолчанию представлена погода в Моргантауне за последние 1-2 суток. Обновление информации о фактической погоде в базе происходит ежечасно! Архивные данные за месяц целиком и за предыдущие месяцы Вы можете получить, выбрав интересующий диапазон дат из раскрывающегося списка и нажав кнопку "Ввод!".
Внимание! Архив погоды МЕТАР в базе сайта по станциям, не включенным в климатический монитор, хранится не более 60 дней. Нет смысла пытаться выбрать более раннюю дату.
*Определитесь, кто Вы:
Внимание! Время в таблицах - местное (без учета летнего времени). Для получения всемирного времени необходимо вычесть поправку, которая равна -5 ч.
Смотрите также архив погоды в соседних городах и на ближайших метеорологических станциях:
Партнеры нашего сайта:      
Пояснения к столбцам:
  • Ветер - указаны скорость ветра в м/с - средняя за 10 мин, порывы в срок и между сроками (в фигурных скобках) и направление, откуда дует ветер: С - северный,
  • СВ - северо-восточный, В - восточный, ЮВ - юго-восточный, Ю - южный, ЮЗ - юго-западный, З - западный, СЗ - северо-западный.
  • Видимость - горизонтальная дальность видимости в метрах или километрах. При видимости от 1 до 10 км при отсутствии осадков обычно наблюдается дымка, при ухудшении видимости до 1 км и менее - туман. В сухую погоду видимость может ухудшаться дымом, пылью или мглою.
  • Явления - указаны атмосферные явления, наблюдавшиеся в срок или в последний час перед сроком; фигурными скобками обозначены явления, наблюдавшиеся между сроками (за 1-3 часа до срока); квадратными скобками обозначены град или гололедные отложения с указанием их диаметра в мм.
  • Облачность - указаны через наклонную черту общая и нижняя облачность в баллах и высота нижней границы облаков в метрах; квадратными скобками обозначены формы облаков: Ci - перистые, Cs - перисто-слоистые, Cc - перисто-кучевые, Ac - высококучевые, As - высокослоистые, Sc - слоисто-кучевые, Ns - слоисто-дождевые, Cu - кучевые, Cb - кучево-дождевые. Подробнее классификацию облаков см. в Атласе облаков (PDF).
  • T - Температура воздуха - температура, измеренная на высоте 2 м над землей.
  • Td - Температура точки росы - температура, при понижении до которой содержащийся в воздухе водяной пар достигнет насыщения.
  • f - Относительная влажность воздуха - влажноcть воздуха, измеренная на высоте 2 м над землей.
  • Te - Эффективная температура - температура, которую ощущает одетый по сезону человек в тени. Характеристика душности погоды. При расчете учитывается влияние влажности воздуха и скорости ветра на теплоощущения человека.
  • Tes - Эффективная температура на солнце - температура, которую ощущает человек, с поправкой на солнечный нагрев. Характеристика знойности погоды. Зависит от высоты солнца над горизонтом, облачности и скорости ветра. Ночью, в пасмурную погоду, а также при ветре 12 м/с и более поправка равна нулю.
  • P - Атмосферное давление - приведенное к уровню моря атмосферное давление.
  • Po - Атмосферное давление - измеренное на уровне метеостанции атмосферное давление.
  • Tmin - Минимальная температура - минимум температуры воздуха на высоте 2 м над землей.
  • Tmax - Максимальная температура - максимум температуры воздуха на высоте 2 м над землей.
  • R - Количество осадков - Количество выпавших осадков за период времени, мм. При наведении курсора мыши на число - период времени, за который выпало указанное количество осадков.
  • R24 - Количество осадков - Количество выпавших осадков за 24 часа, мм.
  • S - Снежный покров - Высота снежного покрова, см. При наведении курсора мыши на число - состояние снежного покрова и степень покрытия местности в баллах.